Hourly Data Report for October 13, 2014

All times are specified in Local Standard Time (LST). Add 1 hour to adjust for Daylight Saving Time where and when it is observed.

ARVIAT A
NUNAVUT

61°05'38.000" N
94°04'18.000" W
10.40 m
2300427
71174
YEK

Download Data

Hourly Data (October 2014)
Hourly Data Report for October 13, 2014
Temp Definition
°C
Dew Point Temp Definition
°C
Rel Hum Definition
%
Wind Dir Definition
10's deg

Wind Spd Definition
km/h
Visibility Definition
km
Stn Press Definition
kPa
Hmdx Definition


Wind Chill Definition


Weather Definition


TIME
00:00 Legend Double Dagger 0.7 -0.3 93 7 17 16.1 100.14     Rain
01:00 Legend Double Dagger 0.9 -0.7 89 6 18 16.1 100.17     LegendNANA
02:00 Legend Double Dagger 1.1 -1.0 86 5 22 16.1 100.18     LegendNANA
03:00 Legend Double Dagger 1.2 -1.7 81 5 21 16.1 100.23     LegendNANA
04:00 Legend Double Dagger 0.2 -0.7 94 2 30 16.1 100.27     LegendNANA
05:00 Legend Double Dagger 0.0 -0.3 98 4 24 6.4 100.31   -6 Rain,Fog
06:00 Legend Double Dagger -0.3 -1.3 93 3 28 16.1 100.35   -7 LegendNANA
07:00 Legend Double Dagger -0.8 -1.9 92 2 26 16.1 100.40   -7 LegendNANA
08:00 Legend Double Dagger -0.8 -2.2 90 4 28 16.1 100.43   -7 LegendNANA
09:00 Legend Double Dagger -0.7 -2.4 88 4 26 16.1 100.49   -7 LegendNANA
10:00 Legend Double Dagger -0.7 -2.6 87 3 22 16.1 100.54   -6 LegendNANA
11:00 Legend Double Dagger -0.8 -3.1 84 3 26 16.1 100.56   -7 LegendNANA
12:00 Legend Double Dagger -0.5 -3.0 83 3 28 16.1 100.58   -7 LegendNANA
13:00 Legend Double Dagger -0.9 -3.5 82 1 22 16.1 100.66   -7 LegendNANA
14:00 Legend Double Dagger -1.1 -3.8 82 35 24 16.1 100.71   -7 LegendNANA
15:00 Legend Double Dagger -1.5 -4.1 83 36 18 16.1 100.76   -7 LegendNANA
16:00 Legend Double Dagger -1.7 -3.7 86 35 18 16.1 100.80   -7 Snow
17:00 Legend Double Dagger -1.5 -4.2 82 35 13 16.1 100.84   -6 LegendNANA
18:00 Legend Double Dagger -1.4 -4.9 77 34 15 16.1 100.88   -6 LegendNANA
19:00 Legend Double Dagger -1.3 -5.2 75 2 8 16.1 100.90   -4 LegendNANA
20:00 Legend Double Dagger -1.5 -4.3 81   0 16.1 100.94     LegendNANA
21:00 Legend Double Dagger -1.5 -3.2 88 26 9 16.1 100.97   -5 LegendNANA
22:00 Legend Double Dagger -1.4 -3.6 85 22 9 16.1 100.95   -5 LegendNANA
23:00 Legend Double Dagger -1.4 -3.1 88 23 15 16.1 100.94   -6 LegendNANA

Notes on Data Quality.

Legend

  • E = Estimated
  • M = Missing
  • NA = Not Available
  • ‡ = Partner data that is not subject to review by the National Climate Archives
Date modified: